User: anonymous   Login
Location: Alfortville
(48.8058°N, 2.4204°E)
Time: 11:57:17
(UTC+00:00)
Language:

CUTE 1.7 + AOD 2 - Orbit

View from above orbital plane
View from above orbital plane
View from above satellite
View from above satellite

Ground track
Ground track

The orbit data is extracted from the following two-line orbital elements,

1 32785U 08021C   23092.14403118  .00006403  00000-0  64232-3 0  9997
2 32785  97.6983  59.7972 0012508   5.7958 354.3403 14.91602790809556
Epoch (UTC): 02 April 2023 03:27:24
Eccentricity: 0.0012508
inclination: 97.6983°
perigee height: 584 km
apogee height: 601 km
right ascension of ascending node: 59.7972°
argument of perigee: 5.7958°
revolutions per day: 14.91602790
mean anomaly at epoch: 354.3403°
orbit number at epoch: 80955

The dashed part of the orbit path shows where the satellite is in the earth's shadow,  

DLR